Skip Page Navigation
NASA JPL Caltech
NASA Logo - Jet Propulsion Laboratory + View the NASA Portal
+ Near-Earth Object (NEO) Program
Search JPL
JPL Home Earth Solar System Stars & Galaxies Technology
JPL Solar System Dynamics
BODIES ORBITS EPHEMERIDES TOOLS PHYSICAL DATA DISCOVERY FAQ SITE MAP
JPL Small-Body Database Browser
Search: [ help ]  
(2011 TC4)
Classification: Apollo [NEO, PHA]          SPK-ID: 3581507
Ephemeris | Orbit Diagram | Orbital Elements | Physical Parameters | Close-Approach Data ]

[ hide orbit diagram ]
Orbit Diagram
Note: Make sure you have Java enabled on your browser to see the applet. This applet is provided as a 3D orbit visualization tool. The applet was implemented using 2-body methods, and hence should not be used for determining accurate long-term trajectories (over several years or decades) or planetary encounter circumstances. For accurate long-term ephemerides, please instead use our Horizons system.
Orbit Viewer

Additional Notes: the orbits shown in the applet are color coded. The planets are white lines, and the asteroid/comet is a blue line. The bright white line indicates the portion of the orbit that is above the ecliptic plane, and the darker portion is below the ecliptic plane. Likewise for the asteroid/comet orbit, the light blue indicates the portion above the ecliptic plane, and the dark blue the portion below the ecliptic plane.

Orbit Viewer applet originally written and kindly provided by Osamu Ajiki (AstroArts), and further modified by Ron Baalke (JPL).


Orbital Elements at Epoch 2456400.5 (2013-Apr-18.0) TDB
Reference: JPL 18 (heliocentric ecliptic J2000)
 Element Value Uncertainty (1-sigma)   Units 
e .7198893573394511 1.2051e-05  
a 1.491690013570732 2.9361e-05 AU
q .4178382483516206 9.7575e-06 AU
i 3.123968675657062 7.7839e-05 deg
node 201.0205807688984 0.00024179 deg
peri 309.011786179677 0.00046019 deg
M 252.1074837441323 0.0072015 deg
tp 2456599.936719203933
(2013-Nov-03.43671920)
0.0192 JED
period 665.4513343923526
1.82
0.019647
5.379e-05
d
yr
n .5409862170142448 1.5972e-05 deg/d
Q 2.565541778789844 5.0498e-05 AU
  Orbit Determination Parameters
   # obs. used (total)      62  
   data-arc span      347 days  
   first obs. used      2011-10-03  
   last obs. used      2012-09-14  
   planetary ephem.      DE405  
   SB-pert. ephem.      SB405-CPV-2  
   condition code      4  
   fit RMS      .42491  
   data source      ORB  
   producer      Otto Matic  
   solution date      2012-Sep-17 11:50:02  

Additional Information
 Earth MOID = .0152743 AU 
 T_jup = 4.230 
[ show covariance matrix ]

Ephemeris | Orbit Diagram | Orbital Elements | Physical Parameters | Close-Approach Data ]

Physical Parameter Table
Parameter Symbol Value Units Sigma Reference Notes
absolute magnitude H 20.171 mag .40372 18 autocmod 2.5b

[ show close-approach data ]
Ephemeris | Orbit Diagram | Orbital Elements | Physical Parameters | Close-Approach Data ]
ABOUT SSD CREDITS/AWARDS PRIVACY/COPYRIGHT GLOSSARY LINKS
FirstGov 2013-May-21 08:37 UT
(server date/time)  
NASA Home Page
Site Manager:   Donald K. Yeomans
Webmaster  Alan B. Chamberlin